• In Deutschland
  • Länderverzeichnis
  • Für 7 Tage
  • Wassertemperatur
  • Satellitenkarten
  • Wetterkarte
  • Widgets
  • user-avatar
    Anmelden

    Stündliche Wetter Geldern

    Heute, 22 September, Samstag

    Zeit Temperatur Niederschläge Wind Luftdruck Luftfeuchtigkeit
    00:00 +11°C° 0.1 mm 6 m/S 760 mmHg 69%
    01:00 +12°C° 0 mm 5 m/S 760 mmHg 71%
    02:00 +12°C° 0 mm 5 m/S 760 mmHg 73%
    03:00 +11°C° 0 mm 4 m/S 761 mmHg 74%
    04:00 +11°C° 0 mm 4 m/S 761 mmHg 75%
    05:00 +11°C° 0 mm 4 m/S 761 mmHg 76%
    06:00 +11°C° 0 mm 4 m/S 762 mmHg 77%
    07:00 +12°C° 0 mm 5 m/S 762 mmHg 71%
    08:00 +14°C° 0 mm 5 m/S 762 mmHg 65%
    09:00 +15°C° 0 mm 6 m/S 762 mmHg 59%
    10:00 +16°C° 0.1 mm 6 m/S 762 mmHg 58%
    11:00 +16°C° 0.1 mm 6 m/S 761 mmHg 57%
    12:00 +16°C° 0.1 mm 6 m/S 761 mmHg 55%
    13:00 +16°C° 0.2 mm 6 m/S 761 mmHg 58%
    14:00 +15°C° 0.2 mm 6 m/S 761 mmHg 60%
    15:00 +15°C° 0.2 mm 5 m/S 761 mmHg 63%
    16:00 +14°C° 0.2 mm 5 m/S 761 mmHg 68%
    17:00 +13°C° 0.2 mm 4 m/S 761 mmHg 73%
    18:00 +13°C° 0.2 mm 3 m/S 761 mmHg 77%
    19:00 +12°C° 0.2 mm 3 m/S 761 mmHg 80%
    20:00 +12°C° 0.2 mm 3 m/S 761 mmHg 83%
    21:00 +12°C° 0.2 mm 3 m/S 761 mmHg 85%
    22:00 +13°C° 0.2 mm 2 m/S 761 mmHg 86%
    23:00 +12°C° 0.2 mm 2 m/S 760 mmHg 87%

    Morgen, 23 September, Sonntag

    Zeit Temperatur Niederschläge Wind Luftdruck Luftfeuchtigkeit
    00:00 +12°C° 0.2 mm 2 m/S 760 mmHg 88%
    01:00 +12°C° 0.2 mm 2 m/S 759 mmHg 88%
    02:00 +12°C° 0.2 mm 1 m/S 759 mmHg 88%
    03:00 +12°C° 0.2 mm 1 m/S 758 mmHg 88%
    04:00 +12°C° 0.1 mm 1 m/S 758 mmHg 88%
    05:00 +12°C° 0.1 mm 1 m/S 757 mmHg 88%
    06:00 +12°C° 0.1 mm 1 m/S 757 mmHg 88%
    07:00 +13°C° 0 mm 1 m/S 757 mmHg 87%
    08:00 +13°C° 0 mm 2 m/S 757 mmHg 86%
    09:00 +13°C° 0 mm 2 m/S 757 mmHg 85%
    10:00 +12°C° 2.2 mm 3 m/S 756 mmHg 86%
    11:00 +12°C° 2.2 mm 4 m/S 755 mmHg 88%
    12:00 +11°C° 2.2 mm 4 m/S 755 mmHg 90%
    13:00 +10°C° 3.6 mm 5 m/S 754 mmHg 90%
    14:00 +9°C° 3.6 mm 6 m/S 754 mmHg 90%
    15:00 +9°C° 3.6 mm 7 m/S 753 mmHg 90%
    16:00 +9°C° 1.3 mm 7 m/S 754 mmHg 90%
    17:00 +8°C° 1.3 mm 7 m/S 756 mmHg 89%
    18:00 +8°C° 1.3 mm 7 m/S 757 mmHg 89%
    19:00 +8°C° 0.6 mm 6 m/S 759 mmHg 88%
    20:00 +9°C° 0.6 mm 5 m/S 760 mmHg 86%
    21:00 +10°C° 0.6 mm 4 m/S 762 mmHg 85%
    22:00 +8°C° 0 mm 4 m/S 763 mmHg 84%
    23:00 +8°C° 0 mm 4 m/S 764 mmHg 83%

    übermorgen, 24 September, Montag

    Zeit Temperatur Niederschläge Wind Luftdruck Luftfeuchtigkeit
    00:00 +7°C° 0 mm 4 m/S 765 mmHg 83%
    01:00 +7°C° 0 mm 4 m/S 766 mmHg 83%
    02:00 +8°C° 0 mm 3 m/S 767 mmHg 82%
    03:00 +8°C° 0 mm 3 m/S 768 mmHg 82%
    04:00 +8°C° 0 mm 3 m/S 769 mmHg 82%
    05:00 +7°C° 0 mm 3 m/S 769 mmHg 83%
    06:00 +7°C° 0 mm 2 m/S 770 mmHg 83%
    07:00 +9°C° 0 mm 3 m/S 771 mmHg 76%
    08:00 +11°C° 0 mm 3 m/S 771 mmHg 69%
    09:00 +13°C° 0 mm 4 m/S 772 mmHg 62%
    10:00 +13°C° 0.2 mm 4 m/S 772 mmHg 61%
    11:00 +13°C° 0.2 mm 5 m/S 772 mmHg 60%
    12:00 +14°C° 0.2 mm 5 m/S 772 mmHg 59%
    13:00 +14°C° 0.1 mm 5 m/S 772 mmHg 57%
    14:00 +14°C° 0.1 mm 5 m/S 772 mmHg 56%
    15:00 +14°C° 0.1 mm 5 m/S 772 mmHg 54%
    16:00 +13°C° 0 mm 4 m/S 773 mmHg 58%
    17:00 +12°C° 0 mm 3 m/S 773 mmHg 63%
    18:00 +10°C° 0 mm 3 m/S 774 mmHg 67%
    19:00 +10°C° 0 mm 2 m/S 774 mmHg 70%
    20:00 +9°C° 0 mm 2 m/S 775 mmHg 73%
    21:00 +9°C° 0 mm 2 m/S 775 mmHg 75%
    22:00 +9°C° 0 mm 1 m/S 775 mmHg 77%
    23:00 +9°C° 0 mm 1 m/S 776 mmHg 78%

    25 September, Dienstag

    Zeit Temperatur Niederschläge Wind Luftdruck Luftfeuchtigkeit
    00:00 +8°C° 0 mm 1 m/S 776 mmHg 80%
    01:00 +8°C° 0 mm 1 m/S 776 mmHg 80%
    02:00 +8°C° 0 mm 1 m/S 776 mmHg 80%
    03:00 +7°C° 0 mm 0 m/S 776 mmHg 81%
    04:00 +7°C° 0 mm 0 m/S 776 mmHg 80%
    05:00 +7°C° 0 mm 0 m/S 776 mmHg 79%
    06:00 +7°C° 0 mm 0 m/S 776 mmHg 79%
    07:00 +9°C° 0 mm 1 m/S 776 mmHg 71%
    08:00 +11°C° 0 mm 1 m/S 777 mmHg 63%
    09:00 +13°C° 0 mm 1 m/S 777 mmHg 55%
    10:00 +14°C° 0 mm 1 m/S 776 mmHg 51%
    11:00 +15°C° 0 mm 1 m/S 776 mmHg 47%
    12:00 +16°C° 0 mm 1 m/S 776 mmHg 42%
    13:00 +16°C° 0 mm 1 m/S 775 mmHg 42%
    14:00 +16°C° 0 mm 1 m/S 775 mmHg 42%
    15:00 +16°C° 0 mm 1 m/S 774 mmHg 41%
    16:00 +15°C° 0 mm 1 m/S 774 mmHg 46%
    17:00 +14°C° 0 mm 1 m/S 774 mmHg 51%
    18:00 +12°C° 0 mm 1 m/S 774 mmHg 56%
    19:00 +12°C° 0 mm 1 m/S 774 mmHg 59%
    20:00 +11°C° 0 mm 1 m/S 774 mmHg 62%
    21:00 +10°C° 0 mm 1 m/S 774 mmHg 65%
    22:00 +10°C° 0 mm 1 m/S 774 mmHg 66%
    23:00 +10°C° 0 mm 1 m/S 774 mmHg 68%

    26 September, Mittwoch

    Zeit Temperatur Niederschläge Wind Luftdruck Luftfeuchtigkeit
    00:00 +9°C° 0 mm 1 m/S 774 mmHg 69%
    01:00 +9°C° 0 mm 1 m/S 774 mmHg 69%
    02:00 +9°C° 0 mm 1 m/S 773 mmHg 70%
    03:00 +9°C° 0 mm 1 m/S 773 mmHg 70%
    04:00 +8°C° 0 mm 1 m/S 773 mmHg 70%
    05:00 +8°C° 0 mm 1 m/S 773 mmHg 69%
    06:00 +8°C° 0 mm 1 m/S 773 mmHg 69%
    07:00 +10°C° 0 mm 1 m/S 773 mmHg 62%
    08:00 +12°C° 0 mm 1 m/S 772 mmHg 56%
    09:00 +14°C° 0 mm 2 m/S 772 mmHg 49%
    10:00 +16°C° 0 mm 2 m/S 772 mmHg 45%
    11:00 +17°C° 0 mm 2 m/S 771 mmHg 41%
    12:00 +18°C° 0 mm 2 m/S 771 mmHg 36%
    13:00 +19°C° 0 mm 2 m/S 771 mmHg 36%
    14:00 +20°C° 0 mm 1 m/S 770 mmHg 36%
    15:00 +20°C° 0 mm 1 m/S 770 mmHg 35%
    16:00 +19°C° 0 mm 1 m/S 769 mmHg 39%
    17:00 +16°C° 0 mm 1 m/S 769 mmHg 44%
    18:00 +14°C° 0 mm 1 m/S 769 mmHg 48%
    19:00 +14°C° 0 mm 1 m/S 769 mmHg 50%
    20:00 +13°C° 0 mm 1 m/S 769 mmHg 51%
    21:00 +12°C° 0 mm 1 m/S 769 mmHg 53%
    22:00 +12°C° 0 mm 1 m/S 769 mmHg 54%
    23:00 +12°C° 0 mm 2 m/S 768 mmHg 56%

    27 September, Donnerstag

    Zeit Temperatur Niederschläge Wind Luftdruck Luftfeuchtigkeit
    00:00 +10°C° 0 mm 2 m/S 768 mmHg 57%
    01:00 +10°C° 0 mm 2 m/S 768 mmHg 59%
    02:00 +10°C° 0 mm 2 m/S 767 mmHg 60%
    03:00 +9°C° 0 mm 2 m/S 767 mmHg 62%
    04:00 +9°C° 0 mm 2 m/S 767 mmHg 63%
    05:00 +9°C° 0 mm 2 m/S 767 mmHg 64%
    06:00 +9°C° 0 mm 3 m/S 766 mmHg 66%
    07:00 +10°C° 0 mm 3 m/S 766 mmHg 61%
    08:00 +12°C° 0 mm 3 m/S 766 mmHg 57%
    09:00 +14°C° 0 mm 4 m/S 766 mmHg 52%
    10:00 +17°C° 0 mm 4 m/S 766 mmHg 49%
    11:00 +18°C° 0 mm 4 m/S 766 mmHg 46%
    12:00 +20°C° 0 mm 5 m/S 765 mmHg 43%
    13:00 +19°C° 0 mm 4 m/S 765 mmHg 47%
    14:00 +19°C° 0 mm 4 m/S 765 mmHg 51%
    15:00 +19°C° 0 mm 4 m/S 765 mmHg 56%
    16:00 +18°C° 0.1 mm 4 m/S 765 mmHg 64%
    17:00 +17°C° 0.1 mm 3 m/S 766 mmHg 72%
    18:00 +16°C° 0.1 mm 3 m/S 766 mmHg 80%
    19:00 +16°C° 0.1 mm 3 m/S 767 mmHg 82%
    20:00 +14°C° 0.1 mm 3 m/S 767 mmHg 84%
    21:00 +13°C° 0.1 mm 3 m/S 767 mmHg 87%
    22:00 +13°C° 0.1 mm 3 m/S 768 mmHg 86%
    23:00 +12°C° 0.1 mm 3 m/S 768 mmHg 84%
    Mehr zeigen